Change the Weather History Date:

Sunday, March 24, 2013

  Actual Average Record
Temperature  
Mean Temperature 53 °F -  
Max Temperature 69 °F 69 °F 79 °F (2001)
Min Temperature 37 °F 42 °F 36 °F (2005)
Degree Days  
Heating Degree Days 12    
Growing Degree Days 3 (Base 50)    
Moisture  
Dew Point 7 °F    
Average Humidity 15    
Maximum Humidity 26    
Minimum Humidity 4    
Precipitation  
Precipitation 0.00 in - - ()
Sea Level Pressure  
Sea Level Pressure 29.97 in    
Wind  
Wind Speed - (North)    
Max Wind Speed -    
Max Gust Speed -    
Visibility 10 miles    
Events      
Averages and records for this station are not official NWS values.
T = Trace of Precipitation, MM = Missing Value Source: NWS Daily Summary

Daily Weather History Graph

Daily Weather History Graph

Search for Another Location

Airport or City:

Trip Planner

Search our weather history database for the weather conditions in past years. The results will help you decide how hot, cold, wet, or windy it might be!

Date:

Astronomy

Mar. 24, 2013 Rise Set
Actual Time 6:41 AM PDT 6:59 PM PDT
Civil Twilight 6:15 AM PDT 7:25 PM PDT
Nautical Twilight 5:45 AM PDT 7:55 PM PDT
Astronomical Twilight 5:14 AM PDT 8:26 PM PDT
Moon 4:35 PM PDT (3/24) 4:50 AM PDT (3/24)
Length of Visible Light 13h 10m
Length of Day
12h 18m
Waxing Gibbous, 92% of the Moon is Illuminated
Mar 24
Waxing Gibbous
Mar 27
Full
Apr 2
Last Quarter
Apr 10
New
Apr 18
First Quarter

Hourly Weather History & Observations

Time (PDT) Temp. Dew Point Humidity Pressure Visibility Wind Dir Wind Speed Gust Speed Precip Events Conditions
12:52 AM 43.0 °F 3.9 °F 20% 30.02 in 10.0 mi North - - N/A   Clear
1:52 AM 37.0 °F 3.9 °F 25% 30.03 in 10.0 mi North - - N/A   Clear
2:52 AM 39.0 °F 6.1 °F 26% 30.02 in 10.0 mi North - - N/A   Clear
3:52 AM 37.9 °F 5.0 °F 25% 30.02 in 10.0 mi North - - N/A   Clear
4:52 AM 39.0 °F 3.9 °F 23% 30.02 in 10.0 mi North - - N/A   Clear
5:52 AM 43.0 °F 3.0 °F 19% 30.03 in 10.0 mi North - - N/A   Clear
6:52 AM 39.0 °F 3.9 °F 23% 30.05 in 10.0 mi North - - N/A   Clear
7:52 AM 42.1 °F 5.0 °F 22% 30.06 in 10.0 mi North - - N/A   Clear
8:52 AM 51.1 °F 3.9 °F 15% 30.06 in 10.0 mi North - - N/A   Clear
9:52 AM 53.1 °F 1.9 °F 12% 30.06 in 10.0 mi North - - N/A   Clear
10:52 AM 57.9 °F 1.0 °F 10% 30.04 in 10.0 mi North - - N/A   Clear
11:52 AM 61.0 °F 1.9 °F 9% 30.02 in 10.0 mi North - - N/A   Clear
12:52 PM 62.1 °F 6.1 °F 11% 29.99 in 10.0 mi North - - N/A   Clear
1:52 PM 64.9 °F 8.1 °F 11% 29.96 in 10.0 mi North - - N/A   Clear
2:52 PM 66.0 °F 9.0 °F 11% 29.92 in 10.0 mi North - - N/A   Clear
3:52 PM 68.0 °F 9.0 °F 10% 29.91 in 10.0 mi North - - N/A   Clear
4:52 PM 66.9 °F 10.9 °F 11% 29.88 in 10.0 mi North - - N/A   Clear
5:52 PM 66.9 °F 12.0 °F 12% 29.87 in 10.0 mi North - - N/A   Clear
6:52 PM 63.0 °F 12.0 °F 14% 29.88 in 10.0 mi North - - N/A   Clear
7:52 PM 59.0 °F 12.0 °F 16% 29.89 in 10.0 mi North - - N/A   Clear
8:52 PM 54.0 °F 12.9 °F 20% 29.89 in 10.0 mi North - - N/A   Clear
9:52 PM 53.1 °F 12.0 °F 20% 29.91 in 10.0 mi North - - N/A   Clear
10:52 PM 53.1 °F 10.9 °F 19% 29.91 in 10.0 mi North - - N/A   Clear
11:52 PM 51.1 °F 10.9 °F 20% 29.91 in 10.0 mi North - - N/A   Clear